| time (UTC) | temp F | wind direction | speed MPH | gust MPH | rain 1hr in | rain 24hr in | rain mn in | humidity % | barometer mb |
| 20260506035032 | 63 | 105 | 2.0 | 3.0 | 0.00 | 0.00 | 0.00 | 77 | 1012.1 |
| 20260506034042 | 63 | 127 | 3.0 | 4.0 | 0.00 | 0.00 | 0.00 | 77 | 1012.1 |
| 20260506033029 | 63 | 110 | 2.0 | 4.0 | 0.00 | 0.00 | 0.00 | 77 | 1012.1 |
| 20260506032019 | 63 | 105 | 3.0 | 4.0 | 0.00 | 0.00 | 0.00 | 76 | 1012.1 |
| 20260506031022 | 63 | 110 | 3.0 | 4.0 | 0.00 | 0.00 | 0.00 | 76 | 1012.1 |
| 20260506030136 | 64 | 71 | 3.0 | 5.0 | 0.00 | 0.00 | 0.00 | 75 | 1012.1 |
| 20260506025025 | 64 | 91 | 3.0 | 5.0 | 0.00 | 0.00 | 0.00 | 75 | 1012.1 |
| 20260506024033 | 64 | 55 | 4.0 | 5.0 | 0.00 | 0.00 | 0.00 | 74 | 1012.1 |
| 20260506023021 | 64 | 49 | 4.0 | 5.0 | 0.00 | 0.00 | 0.00 | 74 | 1012.1 |
| 20260506022055 | 64 | 55 | 5.0 | 6.0 | 0.00 | 0.00 | 0.00 | 73 | 1012.1 |
| 20260506021023 | 64 | 44 | 5.0 | 7.0 | 0.00 | 0.00 | 0.00 | 73 | 1012.1 |
| 20260506020027 | 65 | 46 | 4.0 | 5.0 | 0.00 | 0.00 | 0.00 | 72 | 1012.1 |
| 20260506015035 | 65 | 56 | 4.0 | 5.0 | 0.00 | 0.00 | 0.00 | 71 | 1012.1 |
| 20260506014024 | 66 | 24 | 4.0 | 6.0 | 0.00 | 0.00 | 0.00 | 70 | 1012.2 |
| 20260506013112 | 66 | 2 | 3.0 | 5.0 | 0.00 | 0.00 | 0.00 | 69 | 1012.2 |
| 20260506012022 | 66 | 6 | 2.0 | 5.0 | 0.00 | 0.00 | 0.00 | 70 | 1012.2 |
| 20260506011023 | 66 | 35 | 4.0 | 7.0 | 0.00 | 0.00 | 0.00 | 69 | 1012.2 |
| 20260506010057 | 66 | 325 | 4.0 | 6.0 | 0.00 | 0.00 | 0.00 | 69 | 1012.2 |
| 20260506005027 | 66 | 45 | 5.0 | 6.0 | 0.00 | 0.00 | 0.00 | 70 | 1012.2 |
| 20260506004035 | 66 | 42 | 6.0 | 6.0 | 0.00 | 0.00 | 0.00 | 69 | 1012.2 |
| 20260506003024 | 66 | 50 | 5.0 | 8.0 | 0.00 | 0.00 | 0.00 | 69 | 1012.2 |
| 20260506002035 | 66 | 331 | 4.0 | 6.0 | 0.00 | 0.00 | 0.00 | 68 | 1012.2 |
| 20260506001021 | 67 | 352 | 5.0 | 10.0 | 0.00 | 0.00 | 0.00 | 67 | 1012.2 |
| 20260506000028 | 67 | 230 | 3.0 | 4.0 | 0.00 | 0.00 | 0.00 | 66 | 1012.2 |
| 20260505235037 | 67 | 276 | 4.0 | 6.0 | 0.00 | 0.00 | 0.00 | 66 | 1012.2 |
| 20260505234026 | 67 | 15 | 5.0 | 6.0 | 0.00 | 0.00 | 0.00 | 66 | 1012.2 |
| 20260505233034 | 67 | 11 | 4.0 | 7.0 | 0.00 | 0.00 | 0.00 | 67 | 1012.2 |
| 20260505232024 | 67 | 341 | 5.0 | 7.0 | 0.00 | 0.00 | 0.00 | 68 | 1013.2 |
| 20260505231027 | 66 | 308 | 3.0 | 4.0 | 0.00 | 0.00 | 0.00 | 69 | 1012.4 |
| 20260505230021 | 65 | 62 | 3.0 | 5.0 | 0.00 | 0.00 | 0.00 | 70 | 1012.1 |
| 20260505225048 | 64 | 53 | 3.0 | 5.0 | 0.00 | 0.00 | 0.00 | 71 | 1013.1 |
| 20260505224037 | 65 | 264 | 4.0 | 5.0 | 0.00 | 0.00 | 0.00 | 72 | 1013.1 |
| 20260505223026 | 64 | 266 | 3.0 | 5.0 | 0.00 | 0.00 | 0.00 | 72 | 1013.1 |
| 20260505222038 | 64 | 286 | 4.0 | 5.0 | 0.00 | 0.00 | 0.00 | 72 | 1013.1 |
| 20260505221027 | 64 | 309 | 4.0 | 5.0 | 0.00 | 0.00 | 0.00 | 72 | 1013.1 |
| 20260505220031 | 64 | 262 | 3.0 | 5.0 | 0.00 | 0.00 | 0.00 | 73 | 1013.1 |
| 20260505215021 | 64 | 283 | 3.0 | 5.0 | 0.00 | 0.00 | 0.00 | 73 | 1013.1 |
| 20260505214049 | 64 | 284 | 4.0 | 6.0 | 0.00 | 0.00 | 0.00 | 73 | 1013.1 |
| 20260505213036 | 63 | 295 | 3.0 | 4.0 | 0.00 | 0.00 | 0.00 | 73 | 1013.1 |
| 20260505212047 | 64 | 289 | 3.0 | 5.0 | 0.00 | 0.00 | 0.00 | 73 | 1013.1 |
| 20260505211028 | 64 | 279 | 3.0 | 5.0 | 0.00 | 0.00 | 0.00 | 73 | 1013.1 |
| 20260505210023 | 64 | 263 | 4.0 | 6.0 | 0.00 | 0.00 | 0.00 | 72 | 1013.1 |
| 20260505205031 | 64 | 280 | 3.0 | 6.0 | 0.00 | 0.00 | 0.00 | 73 | 1013.1 |
| 20260505204021 | 63 | 274 | 3.0 | 5.0 | 0.00 | 0.00 | 0.00 | 73 | 1013.1 |
| 20260505203029 | 63 | 261 | 4.0 | 5.0 | 0.00 | 0.00 | 0.00 | 73 | 1013.1 |
| 20260505202039 | 63 | 288 | 3.0 | 4.0 | 0.00 | 0.00 | 0.00 | 73 | 1013.1 |
| 20260505201029 | 62 | 162 | 3.0 | 5.0 | 0.00 | 0.00 | 0.00 | 73 | 1013.1 |
| 20260505200034 | 63 | 240 | 4.0 | 6.0 | 0.00 | 0.00 | 0.00 | 72 | 1013.1 |
| 20260505195023 | 64 | 256 | 3.0 | 5.0 | 0.00 | 0.00 | 0.00 | 72 | 1013.1 |
| 20260505194031 | 63 | 205 | 3.0 | 4.0 | 0.00 | 0.00 | 0.00 | 73 | 1013.9 |
| 20260505193021 | 63 | 223 | 1.0 | 3.0 | 0.00 | 0.00 | 0.00 | 73 | 1014.1 |
| 20260505192051 | 63 | 279 | 3.0 | 4.0 | 0.00 | 0.00 | 0.00 | 73 | 1014.1 |
| 20260505191030 | 63 | 317 | 1.0 | 2.0 | 0.00 | 0.00 | 0.00 | 73 | 1014.1 |
| 20260505190019 | 64 | 203 | 2.0 | 4.0 | 0.00 | 0.00 | 0.00 | 70 | 1014.1 |
| 20260505185034 | 63 | 235 | 2.0 | 4.0 | 0.00 | 0.00 | 0.00 | 72 | 1013.1 |
| 20260505184024 | 62 | 38 | 4.0 | 5.0 | 0.00 | 0.00 | 0.00 | 74 | 1013.1 |
| 20260505183032 | 61 | 44 | 3.0 | 4.0 | 0.00 | 0.00 | 0.00 | 74 | 1013.1 |
| 20260505182021 | 62 | 274 | 2.0 | 4.0 | 0.00 | 0.00 | 0.00 | 73 | 1013.1 |
| 20260505181051 | 62 | 197 | 1.0 | 3.0 | 0.00 | 0.00 | 0.00 | 75 | 1013.9 |
| 20260505180021 | 61 | 283 | 2.0 | 3.0 | 0.00 | 0.00 | 0.00 | 74 | 1014.1 |
| 20260505175027 | 62 | 249 | 3.0 | 4.0 | 0.00 | 0.00 | 0.00 | 74 | 1013.1 |
| 20260505174035 | 61 | 177 | 2.0 | 3.0 | 0.00 | 0.00 | 0.00 | 75 | 1013.1 |
| 20260505173024 | 61 | 156 | 2.0 | 3.0 | 0.00 | 0.00 | 0.00 | 75 | 1013.1 |
| 20260505172032 | 60 | 106 | 2.0 | 4.0 | 0.00 | 0.00 | 0.00 | 77 | 1013.1 |
| 20260505171023 | 60 | 203 | 3.0 | 5.0 | 0.00 | 0.00 | 0.00 | 77 | 1013.1 |
| 20260505170022 | 59 | 219 | 2.0 | 3.0 | 0.00 | 0.00 | 0.00 | 78 | 1013.1 |
| 20260505165019 | 59 | 182 | 2.0 | 3.0 | 0.00 | 0.00 | 0.00 | 80 | 1013.1 |
| 20260505164026 | 59 | 247 | 1.0 | 5.0 | 0.00 | 0.00 | 0.00 | 80 | 1013.1 |
| 20260505163035 | 58 | 222 | 3.0 | 4.0 | 0.00 | 0.00 | 0.00 | 81 | 1013.1 |
| 20260505162047 | 58 | 223 | 3.0 | 4.0 | 0.00 | 0.00 | 0.00 | 81 | 1013.1 |
| 20260505161113 | 57 | 180 | 1.0 | 2.0 | 0.00 | 0.00 | 0.00 | 83 | 1013.1 |
| 20260505153027 | 56 | 231 | 4.0 | 4.0 | 0.00 | 0.00 | 0.00 | 87 | 1013.1 |
| 20260505152035 | 55 | 186 | 2.0 | 3.0 | 0.00 | 0.00 | 0.00 | 87 | 1013.1 |
| 20260505151024 | 55 | 164 | 2.0 | 3.0 | 0.00 | 0.00 | 0.00 | 88 | 1013.1 |
| 20260505140107 | 54 | 148 | 2.0 | 4.0 | 0.00 | 0.00 | 0.00 | 90 | 1012.2 |
| 20260505125024 | 54 | 165 | 4.0 | 5.0 | 0.00 | 0.00 | 0.00 | 90 | 1012.2 |
| 20260505124032 | 54 | 183 | 3.0 | 5.0 | 0.00 | 0.00 | 0.00 | 90 | 1011.2 |
| 20260505123023 | 54 | 173 | 4.0 | 6.0 | 0.00 | 0.00 | 0.00 | 90 | 1011.2 |
| 20260505122049 | 54 | 175 | 6.0 | 8.0 | 0.00 | 0.00 | 0.00 | 90 | 1012.2 |
| 20260505121037 | 54 | 181 | 5.0 | 6.0 | 0.00 | 0.00 | 0.00 | 90 | 1011.4 |
| 20260505120026 | 54 | 177 | 5.0 | 8.0 | 0.00 | 0.00 | 0.00 | 90 | 1011.2 |
| 20260505115035 | 54 | 194 | 3.0 | 5.0 | 0.00 | 0.00 | 0.00 | 89 | 1011.2 |
| 20260505114045 | 54 | 178 | 5.0 | 7.0 | 0.00 | 0.00 | 0.00 | 89 | 1011.2 |
| 20260505113033 | 54 | 185 | 5.0 | 7.0 | 0.00 | 0.00 | 0.00 | 89 | 1011.2 |
| 20260505112022 | 54 | 194 | 4.0 | 6.0 | 0.00 | 0.00 | 0.00 | 89 | 1011.2 |
| 20260505111030 | 54 | 177 | 3.0 | 4.0 | 0.00 | 0.00 | 0.00 | 89 | 1011.2 |
| 20260505102033 | 53 | 182 | 3.0 | 4.0 | 0.00 | 0.00 | 0.00 | 90 | 1011.2 |
| 20260505101021 | 53 | 181 | 3.0 | 4.0 | 0.00 | 0.00 | 0.00 | 90 | 1011.2 |
| 20260505100030 | 53 | 191 | 3.0 | 4.0 | 0.00 | 0.00 | 0.00 | 90 | 1011.2 |
| 20260505095019 | 53 | 175 | 4.0 | 5.0 | 0.00 | 0.00 | 0.00 | 89 | 1011.2 |
| 20260505094027 | 54 | 199 | 4.0 | 5.0 | 0.00 | 0.00 | 0.00 | 89 | 1011.2 |
| 20260505093034 | 54 | 201 | 4.0 | 7.0 | 0.00 | 0.00 | 0.00 | 89 | 1011.2 |
| 20260505092024 | 54 | 187 | 5.0 | 8.0 | 0.00 | 0.00 | 0.00 | 89 | 1011.2 |
| 20260505091032 | 54 | 178 | 4.0 | 7.0 | 0.00 | 0.00 | 0.00 | 89 | 1011.2 |
| 20260505090041 | 54 | 174 | 4.0 | 6.0 | 0.00 | 0.00 | 0.00 | 90 | 1011.2 |
| 20260505085019 | 53 | 162 | 3.0 | 4.0 | 0.00 | 0.00 | 0.00 | 90 | 1010.2 |
| 20260505084057 | 53 | 167 | 3.0 | 3.0 | 0.00 | 0.00 | 0.00 | 91 | 1010.2 |
| 20260505083027 | 53 | 163 | 2.0 | 3.0 | 0.00 | 0.00 | 0.00 | 91 | 1010.2 |
| 20260505082055 | 53 | 166 | 3.0 | 3.0 | 0.00 | 0.00 | 0.00 | 91 | 1010.2 |
| 20260505081024 | 53 | 180 | 2.0 | 3.0 | 0.00 | 0.00 | 0.00 | 91 | 1010.2 |
| 20260505080032 | 53 | 183 | 3.0 | 6.0 | 0.00 | 0.00 | 0.00 | 90 | 1010.2 |
| 20260505075021 | 53 | 168 | 4.0 | 6.0 | 0.00 | 0.00 | 0.00 | 90 | 1010.1 |
| 20260505074049 | 53 | 174 | 5.0 | 6.0 | 0.00 | 0.00 | 0.00 | 90 | 1010.1 |
| 20260505073019 | 53 | 165 | 4.0 | 6.0 | 0.00 | 0.00 | 0.00 | 90 | 1010.1 |
| 20260505072027 | 53 | 171 | 4.0 | 9.0 | 0.00 | 0.00 | 0.00 | 90 | 1010.1 |
| 20260505071034 | 53 | 155 | 4.0 | 5.0 | 0.00 | 0.00 | 0.00 | 90 | 1010.1 |
| 20260505070024 | 53 | 168 | 4.0 | 6.0 | 0.00 | 0.00 | 0.00 | 89 | 1010.1 |
| 20260505065022 | 54 | 172 | 5.0 | 9.0 | 0.00 | 0.00 | 0.00 | 89 | 1010.1 |
| 20260505064042 | 54 | 177 | 5.0 | 7.0 | 0.00 | 0.00 | 0.00 | 88 | 1010.1 |
| 20260505063030 | 54 | 173 | 4.0 | 6.0 | 0.00 | 0.00 | 0.00 | 88 | 1010.1 |
| 20260505062019 | 54 | 167 | 5.0 | 8.0 | 0.00 | 0.00 | 0.00 | 87 | 1010.1 |
| 20260505061046 | 55 | 185 | 5.0 | 6.0 | 0.00 | 0.00 | 0.00 | 87 | 1010.1 |
| 20260505060135 | 55 | 170 | 5.0 | 8.0 | 0.00 | 0.00 | 0.00 | 87 | 1010.1 |
| 20260505055025 | 55 | 170 | 4.0 | 7.0 | 0.00 | 0.00 | 0.00 | 86 | 1010.1 |
| 20260505054032 | 56 | 163 | 5.0 | 8.0 | 0.00 | 0.00 | 0.00 | 85 | 1010.1 |
| 20260505053021 | 56 | 177 | 5.0 | 9.0 | 0.00 | 0.00 | 0.00 | 85 | 1010.1 |
| 20260505052029 | 56 | 206 | 3.0 | 4.0 | 0.00 | 0.00 | 0.00 | 85 | 1010.1 |
| 20260505051019 | 56 | 223 | 4.0 | 6.0 | 0.00 | 0.00 | 0.00 | 84 | 1009.3 |
| 20260505041030 | 58 | 205 | 9.0 | 12.0 | 0.00 | 0.00 | 0.00 | 81 | 1009.1 |
| 20260505040057 | 58 | 186 | 10.0 | 12.0 | 0.00 | 0.00 | 0.00 | 81 | 1009.1 |